Location: Lahas
(43.5538°N, 0.8906°E)
Time: 16:28:06
(UTC+00:00)

Cosmos 1825 Rocket - Pass Details

Date: 15 May 2026
Orbit: 598 x 622 km, 82.5° (Epoch: 10 June)

Event Time Altitude Azimuth Distance (km) Brightness Sun altitude
Rises 22:06:50 0° 346° (NNW) 2,873 8.3 -22.9°
Reaches altitude 10° 22:09:05 10° 342° (NNW) 1,968 7.2 -23.0°
Maximum altitude 22:13:18 52° 266° (W) 766 4.1 -23.4°
Enters shadow 22:13:54 48° 237° (WSW) 808 4.0 -23.4°
